User: anonymous   Login
Location: Unspecified
(0.0000°N, 0.0000°E)
Time: 20:01:47
(UTC+00:00)
Language:

TBA - TO BE ASSIGNED - Orbit

View from above orbital plane
View from above orbital plane
View from above satellite
View from above satellite

Ground track
Ground track

The orbit is defined by the following mean orbital elements,

1 68616U          26145.58335647 +.00000000 +00000-0 +71561-3 0 00002
2 68616  97.2849 344.9999 0001616  90.6952 195.3870 15.49166580    08
Epoch (UTC): 25 May 2026 14:00:01
Eccentricity: 0.0001616
inclination: 97.2849°
perigee height: 418 km
apogee height: 420 km
right ascension of ascending node: 344.9999°
argument of perigee: 90.6952°
revolutions per day: 15.49166580
mean anomaly at epoch: 195.3870°

The dashed part of the orbit path shows where the satellite is in the earth's shadow,  

DLR